01:05
Airports
History
Links
Donate
Help keep this website running!
PayPal
Bitcoin
This page is community maintained. The information is intended for PC simulator navigation or reference.
Always use approved charts for navigation.
CYCY
CLYDE RIVER
CLYDE RIVER (CYCY)
Clyde River, Nunavut, Canada
4
Lat/Lng:70° 29' 10.01" N / 68° 30' 59.5" W
70.486114 / -68.516529
Elevation:87'ft / 27mMSL
ID / ICAO:CYCY
Runways:1
Longest:02T-20T
Gravel 1,110m / 3,643ft
METAR00:00 GMT 2017-11-18
Altimeter: 30.50
Visibility: 15.0 statute miles
Wind: 3 knots (from 270°)
Temp: -29°c / -20°f
Humidity: 68.0%

METAR: CYCY 180000Z 27003KT 15SM SCT250 M29/M33 A3050 RMK CI3 -26.4/-29.9/M/13 TRACE LOOSE LAST STFD OB/NEXT 191400Z SLP333

(Powered by phpweather)
Airport Radio Frequencies
AWOS: 124.6
MANDATORY FREQ: 122.1
Nearby VORs <50NM
Nearby NDBs
Runway 02T / 20T
Dimensions:1110.4 x 30.5m 3643' x 100'ft
Surface:Gravel
Edge Lights:Medium intensity
Runway 02T [A]Runway 20T [B]
Heading:017°TH 197°TH
Lat:
Lng:
70° 28' 53.01"N
68° 31' 16"W
70° 29' 27.01"N
68° 30' 43.01"W
TDZ:Yes, lighted
User Notes and Comments
70° 29' 10.01" N / 68° 30' 59.5" W
Distance To
Airport ID:
Nearby Airports
4 QIKIQTARJUAQ 231.3 NM
CYVM SSE 151°
4 POND INLET 255.6 NM
CYIO ( WX ) NW 306°
4 Pangnirtung 308.3 NM
CYXP SSE 166°
(C) Upernavik 312.2 NM
BGUK ENE 59°
4 Igloolik 324.1 NM
CYGT WSW 256°
4 Hall Beach 327.3 NM
CYUX ( WX ) WSW 248°
(C) Qaarsut Ummannaq 362.3 NM
BGUQ E 87°
VFR Chart
Flight Planning at SkyVector.com